[[{"header":{"parameterUnit":"m.s-1","parameterCategory":1,"la1":30.2991,"la2":30.254,"lo1":-89.0895,"lo2":-89.0444,"dy":0.0017,"dx":0.0017,"nx":28,"ny":28,"refTime":"2024-04-27T03:00:00:Z","depth":0,"parameterNumber":2,"parameterNumberName":"U-component_of_WINDS"},"data":[0,0,0,0,0,0,0,0,0,0,0,0,0,0,0,0,0,0,0,0,0,0,0,0,0,0,0,0,0,0,0,0,0,0,0,0,0,0,0,0,0,0,0,0,0,0,0,0,0,0,0,0,0,0,0,0,0,0,-6.9155,-6.9156,0,-6.9275,-6.9277,-6.9278,-6.9244,-6.9242,-6.9239,-6.9237,-6.9355,-6.936,-6.9365,0,0,0,0,0,0,0,0,0,0,0,0,0,-6.8893,-6.8898,-6.9155,-6.9156,-6.9158,-6.9275,-6.9277,-6.9278,-6.9244,-6.9241,-6.9238,-6.9236,-6.9353,-6.9359,-6.9366,0,0,0,0,0,0,0,0,0,0,0,0,0,-6.9009,-6.8899,-6.9155,-6.9155,-6.9157,-6.9275,-6.9277,-6.9279,-6.9245,-6.9241,-6.9238,-6.9234,-6.9351,-6.9359,-6.9367,-6.949,0,0,-6.9392,-6.9395,0,0,0,0,0,0,0,0,-6.9002,-6.9019,-6.9154,-6.9155,-6.9157,-6.9241,-6.9228,-6.935,-6.9246,-6.9211,-6.9237,-6.9232,-6.932,-6.933,-6.936,-6.9496,-6.9501,-6.9392,-6.9397,-6.9401,-6.9403,0,0,0,0,0,0,0,-6.8994,-6.9013,-6.9202,-6.9156,-6.9158,-6.9149,-6.9161,-6.9251,-6.9284,-6.9214,-6.9212,-6.9227,-6.932,-6.9353,-6.9363,-6.9503,-6.9392,-6.9399,-6.9404,-6.9408,-6.9746,-6.975,0,0,0,0,0,0,-6.8986,-6.9007,-6.9199,-6.9206,-6.9069,-6.9156,-6.917,-6.9218,-6.9283,-6.929,-6.923,-6.9225,-6.9341,-6.9354,-6.9367,-6.9515,-6.9401,-6.9408,-6.9413,-6.9742,-6.9747,-6.9751,0,0,0,0,0,0,-6.898,-6.9003,-6.9194,-6.9106,-6.913,-6.9165,-6.9218,-6.9222,-6.9255,-6.9295,-6.9301,-6.9257,-6.9338,-6.9356,-6.946,-6.9518,-6.9412,-6.9419,-6.9737,-6.9743,-6.9749,-6.9812,0,0,0,0,0,0,-6.8973,-6.9001,-6.9049,-6.9107,-6.9134,-6.9286,-6.9222,-6.9227,-6.927,-6.9264,-6.9323,-6.9329,-6.9337,-6.9448,-6.9468,-6.9528,-6.9426,-6.9732,-6.974,-6.9747,-6.9805,-6.9819,-6.9832,0,0,0,0,0,-6.8964,-6.9061,-6.9052,-6.9075,-6.9195,-6.9289,-6.9304,-6.9313,-6.9274,-6.9322,-6.9349,-6.9327,-6.951,-6.9459,-6.9482,-6.9544,-6.9728,-6.9737,-6.9746,-6.9798,-6.9817,-6.9832,0,0,0,0,0,0,-6.9005,-6.9068,-6.9059,-6.9178,-6.9229,-6.9283,-6.9343,-6.9332,-6.9393,-6.9385,-6.9392,-6.9406,-6.9513,-6.954,-6.9482,-6.9668,-6.9613,-6.9627,-6.9645,-6.9663,-6.9676,-6.9665,-6.9432,0,0,0,0,0,-6.9029,-6.9102,-6.9152,-6.9253,-6.9279,-6.9307,-6.9349,-6.9352,-6.9404,-6.9424,-6.9458,-6.9509,-6.9578,-6.9622,-6.9688,-6.9811,-6.9822,-6.9865,-6.9878,-6.989,-6.99,-6.9966,-6.9985,-6.9781,-6.9781,-6.9781,0,0,-6.9077,-6.9121,-6.9165,-6.9262,-6.9302,-6.9376,-6.9325,-6.9405,-6.946,-6.9436,-6.9536,-6.9564,-6.9621,-6.9735,-6.9787,-6.976,-6.996,-6.9901,-6.991,-6.9914,-6.9978,-6.9997,-7.0014,-6.9788,-6.9787,-6.9786,0,0,-6.9202,-6.9243,-6.9331,-6.9373,-6.9435,-6.9454,-6.9475,-6.9533,-6.9551,-6.9653,-6.9637,-6.9702,-6.9821,-6.9862,-6.9898,-7.0044,-7.0025,-7.0066,-7.0135,-7.0199,-7.0215,-7.0229,-7.0279,-7.0297,-7.0077,-7.0077,-7.0077,0,-6.9253,-6.9365,-6.9377,-6.9459,-6.9502,-6.9488,-6.9576,-6.9616,-6.9695,-6.9725,-6.9695,-6.9845,-6.9883,-7.0006,-7.0042,-7.0073,-7.0096,-7.0056,-7.0213,-7.0227,-7.024,-7.0287,-7.0306,-7.0081,-7.0081,-7.008,-7.008,0,-6.9424,-6.9502,-6.9565,-6.9645,-6.9695,-6.978,-6.9804,-6.9854,-6.9854,-6.9876,-6.9981,-7.0026,-7.0101,-7.0131,-7.0131,-7.0255,-7.0237,-7.0211,-7.0155,-7.0264,-7.0308,-7.0326,-7.0087,-7.0086,-7.0084,-7.0083,0,0,-6.9572,-6.9661,-6.9684,-6.972,-6.979,-6.9849,-6.9935,-7.001,-7.0051,-7.0109,-7.0178,-7.0282,-7.0259,-7.03,-7.0305,-7.0363,-7.0473,-7.0329,-7.033,-7.0351,-7.061,-7.0627,-7.0648,-7.0464,-7.0468,-7.047,-7.0605,0,-6.97,-6.9851,-6.9866,-7.0,-7.0072,-7.0062,-7.0136,-7.0186,-7.021,-7.0274,-7.03,-7.0372,-7.0337,-7.0362,-7.0419,-7.0447,-7.0524,-7.0439,-7.0526,-7.0529,-7.0508,-7.0671,-7.0688,-7.0812,-7.0622,-7.0625,-7.0627,0,-6.9869,-6.9933,-7.0074,-7.0135,-7.0166,-7.0232,-7.0303,-7.0365,-7.0423,-7.0436,-7.0485,-7.0484,-7.0571,-7.0517,-7.0635,-7.0577,-7.0615,-7.0635,-7.064,-7.0644,-7.0581,-7.0677,-7.0853,-7.087,-7.0655,-7.0653,-7.0651,0,-6.9959,-7.0082,-7.0182,-7.0214,-7.0288,-7.0335,-7.0368,-7.0422,-7.0467,-7.053,-7.0558,-7.063,-7.0668,-7.0723,-7.0741,-7.07,-7.0859,-7.0806,-7.087,-7.087,-7.09,-7.0897,-7.108,-7.0932,-7.0931,-7.0931,-7.0931,0,-7.0098,-7.0184,-7.0224,-7.0285,-7.0381,-7.04,-7.0494,-7.0525,-7.0574,-7.064,-7.0637,-7.0699,-7.0721,-7.0787,-7.0802,-7.0898,-7.0916,-7.0928,-7.093,-7.0925,-7.0923,-7.0946,-7.0937,-7.0936,-7.0935,-7.0934,-7.0933,0,-7.0213,-7.0244,-7.0352,-7.0415,-7.0433,-7.0501,-7.0555,-7.0614,-7.0639,-7.0723,-7.0744,-7.0783,-7.0861,-7.0886,-7.0979,-7.099,-7.11,-7.1097,-7.108,-7.1079,-7.1141,-7.1134,-7.1342,-7.137,-7.1207,-7.1208,-7.1209,0,-7.0298,-7.0364,-7.0436,-7.0481,-7.0516,-7.0589,-7.0636,-7.0658,-7.0706,-7.0779,-7.0828,-7.0906,-7.0969,-7.1094,-7.1129,-7.1201,-7.1197,-7.1266,-7.1207,-7.1201,-7.1194,-7.1188,-7.1194,-7.1274,-7.1276,-7.1277,-7.1279,0,-7.0443,-7.0456,-7.0524,-7.0599,-7.0655,-7.0714,-7.0771,-7.0808,-7.0838,-7.0893,-7.0974,-7.1023,-7.112,-7.1196,-7.127,-7.1303,-7.1295,-7.1298,-7.1316,-7.131,-7.1296,-7.1301,-7.1106,-7.1291,-7.129,-7.1289,-7.1288,-7.1288,-7.0543,-7.0602,-7.0662,-7.0738,-7.0785,-7.0839,-7.0897,-7.0932,-7.1,-7.1081,-7.109,-7.1177,-7.1234,-7.1333,-7.1371,-7.1438,-7.1418,-7.1445,-7.1451,-7.1456,-7.1459,-7.129,-7.1452,-7.1452,-7.1451,-7.1451,-7.1451,0,-7.0686,-7.0726,-7.0796,-7.0877,-7.0938,-7.093,-7.0993,-7.1043,-7.112,-7.1175,-7.1238,-7.1331,-7.1407,-7.145,-7.1526,-7.1571,-7.1569,-7.159,-7.1584,-7.1591,-7.1474,-7.1449,-7.159,-7.159,-7.159,-7.159,-7.159,-7.1589,-7.0767,-7.0866,-7.0886,-7.1008,-7.1046,-7.1132,-7.1169,-7.1219,-7.1263,-7.1367,-7.1431,-7.146,-7.1511,-7.159,-7.1659,-7.167,-7.1696,-7.1718,-7.1726,-7.1614,-7.16,-7.1586,-7.1563,-7.1724,-7.1724,-7.1837,-7.1838,-7.1839]},{"header":{"parameterUnit":"m.s-1","parameterCategory":1,"la1":30.2991,"la2":30.254,"lo1":-89.0895,"lo2":-89.0444,"dy":0.0017,"dx":0.0017,"nx":28,"ny":28,"refTime":"2024-04-27T03:00:00:Z","depth":0,"parameterNumber":3,"parameterNumberName":"V-component_of_WINDS"},"data":[0,0,0,0,0,0,0,0,0,0,0,0,0,0,0,0,0,0,0,0,0,0,0,0,0,0,0,0,0,0,0,0,0,0,0,0,0,0,0,0,0,0,0,0,0,0,0,0,0,0,0,0,0,0,0,0,0,0,4.0835,4.0835,0,4.083,4.083,4.083,4.0799,4.0798,4.0798,4.0797,4.0788,4.0788,4.0789,0,0,0,0,0,0,0,0,0,0,0,0,0,4.0817,4.0818,4.0835,4.0835,4.0835,4.083,4.083,4.083,4.0799,4.0798,4.0797,4.0797,4.0788,4.0788,4.0789,0,0,0,0,0,0,0,0,0,0,0,0,0,4.082,4.0818,4.0835,4.0819,4.0818,4.083,4.083,4.083,4.0799,4.0798,4.0797,4.0796,4.0788,4.0788,4.0789,4.0815,0,0,4.0791,4.0791,0,0,0,0,0,0,0,0,4.082,4.082,4.0822,4.082,4.0819,4.0814,4.082,4.0825,4.08,4.0806,4.0797,4.0796,4.0797,4.0797,4.0798,4.0814,4.0814,4.0791,4.0791,4.0792,4.0792,0,0,0,0,0,0,0,4.0819,4.082,4.0833,4.0822,4.082,4.0812,4.0811,4.0821,4.0808,4.0806,4.0803,4.0803,4.0796,4.0798,4.0798,4.0814,4.0791,4.0792,4.0792,4.0792,4.0853,4.0854,0,0,0,0,0,0,4.0822,4.082,4.0833,4.0833,4.0817,4.0813,4.0812,4.0817,4.0808,4.0805,4.0804,4.0802,4.0797,4.0797,4.0797,4.0828,4.0792,4.0792,4.0793,4.0852,4.0853,4.0854,0,0,0,0,0,0,4.0822,4.0823,4.0833,4.0826,4.0827,4.0815,4.082,4.0817,4.0819,4.0807,4.0804,4.0808,4.0796,4.0797,4.0811,4.0828,4.0793,4.0793,4.085,4.0852,4.0854,4.089,0,0,0,0,0,0,4.0821,4.0823,4.0833,4.0827,4.0827,4.0848,4.0821,4.0818,4.082,4.0817,4.081,4.0808,4.0795,4.0811,4.0812,4.0828,4.0794,4.0849,4.0851,4.0853,4.0887,4.0893,4.0897,0,0,0,0,0,4.0821,4.0842,4.0834,4.0836,4.084,4.0849,4.0849,4.0836,4.0822,4.0832,4.0824,4.0808,4.0826,4.0812,4.0814,4.083,4.0848,4.085,4.0853,4.0885,4.0892,4.0897,0,0,0,0,0,0,4.0849,4.0841,4.0832,4.0852,4.0852,4.0844,4.0855,4.0843,4.0846,4.0843,4.0825,4.0824,4.0841,4.0837,4.0822,4.0856,4.0834,4.0837,4.0858,4.0864,4.0869,4.087,4.0794,0,0,0,0,0,4.0858,4.0868,4.0859,4.0878,4.0879,4.0868,4.0871,4.0861,4.0859,4.0859,4.0852,4.0851,4.0856,4.086,4.0864,4.0887,4.0885,4.0899,4.0904,4.0908,4.0911,4.0924,4.093,4.0863,4.0863,4.0863,0,0,4.0876,4.0873,4.0879,4.0884,4.0882,4.0892,4.0867,4.0878,4.0885,4.086,4.0874,4.087,4.0867,4.0886,4.0894,4.0883,4.0929,4.0912,4.0915,4.0915,4.0928,4.0934,4.094,4.0865,4.0865,4.0865,0,0,4.0914,4.0912,4.0929,4.0929,4.0928,4.092,4.0925,4.0919,4.0916,4.093,4.0913,4.092,4.0929,4.0929,4.0929,4.097,4.0956,4.0972,4.0999,4.1012,4.1017,4.1022,4.1037,4.1042,4.0975,4.0975,4.0975,0,4.0936,4.0951,4.0938,4.0951,4.0954,4.0934,4.0951,4.0951,4.0951,4.0953,4.0941,4.0954,4.095,4.097,4.098,4.0981,4.0986,4.0972,4.1018,4.1022,4.1026,4.104,4.1046,4.0977,4.0977,4.0977,4.0977,0,4.0979,4.0989,4.1002,4.1005,4.101,4.1024,4.1014,4.1019,4.101,4.1004,4.102,4.1015,4.1019,4.1023,4.1013,4.1042,4.1035,4.1021,4.0998,4.1035,4.1048,4.1053,4.098,4.0979,4.0979,4.0978,0,0,4.1033,4.1031,4.1036,4.1037,4.1036,4.1044,4.1058,4.1063,4.1069,4.107,4.1082,4.1091,4.1079,4.108,4.1069,4.1081,4.1115,4.1065,4.1065,4.1075,4.1148,4.1159,4.1166,4.1106,4.1107,4.1107,4.1148,0,4.107,4.1095,4.1085,4.111,4.1121,4.1103,4.1116,4.1116,4.1111,4.1119,4.1113,4.1121,4.1103,4.1104,4.1115,4.1109,4.1129,4.1106,4.1116,4.1116,4.1117,4.1172,4.1184,4.1223,4.1153,4.1154,4.1155,0,4.1116,4.1121,4.1149,4.1148,4.1151,4.1163,4.1168,4.1176,4.1176,4.1172,4.1175,4.1163,4.1176,4.1155,4.1174,4.1158,4.1162,4.116,4.1161,4.1161,4.1138,4.1174,4.1234,4.124,4.1163,4.1162,4.1162,0,4.1154,4.1168,4.1186,4.1188,4.1187,4.1196,4.1196,4.1195,4.12,4.1204,4.1207,4.1213,4.1215,4.122,4.121,4.1195,4.123,4.1208,4.1227,4.1228,4.1235,4.1234,4.1297,4.1237,4.1237,4.1237,4.1237,0,4.1196,4.1213,4.1204,4.1215,4.1234,4.1223,4.1242,4.124,4.124,4.1251,4.1236,4.1246,4.1232,4.124,4.1232,4.125,4.1251,4.1248,4.1245,4.1249,4.125,4.1251,4.1248,4.1239,4.1238,4.1238,4.1238,0,4.1241,4.1235,4.1255,4.1253,4.1253,4.1268,4.1266,4.1276,4.1272,4.1285,4.1288,4.128,4.129,4.128,4.1289,4.1283,4.1307,4.1301,4.1307,4.1306,4.1326,4.1324,4.1391,4.14,4.1335,4.1335,4.1336,0,4.1269,4.1282,4.1283,4.129,4.1291,4.1302,4.1308,4.1297,4.1304,4.1307,4.1317,4.1326,4.1332,4.1348,4.1343,4.135,4.1343,4.1367,4.1344,4.1348,4.1344,4.1344,4.1346,4.1371,4.1372,4.1372,4.1373,0,4.1319,4.1316,4.1325,4.1334,4.1341,4.1347,4.1351,4.1357,4.1347,4.1355,4.1366,4.1371,4.1381,4.139,4.1396,4.1395,4.1382,4.138,4.1385,4.1389,4.1393,4.1392,4.132,4.1378,4.1378,4.1377,4.1377,4.1377,4.1356,4.1368,4.1371,4.1382,4.1385,4.1391,4.1401,4.1399,4.1408,4.1416,4.141,4.1423,4.1424,4.1431,4.1432,4.1442,4.1432,4.1439,4.1441,4.1442,4.1446,4.1392,4.1442,4.1442,4.1442,4.1442,4.1442,0,4.1406,4.1408,4.1418,4.1427,4.1436,4.1425,4.143,4.1438,4.145,4.1453,4.1461,4.1474,4.1483,4.1479,4.1488,4.1496,4.1491,4.1499,4.1498,4.1498,4.1454,4.1449,4.1503,4.1503,4.1503,4.1503,4.1503,4.1503,4.1433,4.1453,4.1451,4.1473,4.1474,4.1488,4.1492,4.1497,4.15,4.1516,4.1524,4.1522,4.1523,4.1531,4.1539,4.1538,4.1542,4.1552,4.1549,4.1507,4.1501,4.1495,4.1491,4.1553,4.1553,4.1592,4.1593,4.1593]}]]